Wind_Speed
28 30 31 31 31 31 31 31 30 29 28 27 27 26 26 25 24 23 22 23 23 24 25 26 27 28 29 30 30 31 32 33 34 35 35 35 35 35 35 35 34 33
29 31 31 32 32 32 32 31 30 29 28 27 26 25 24 23 22 22 22 22 23 24 25 26 27 28 29 30 31 32 33 33 34 34 34 34 34 33 32 31 31 30
26 29 30 31 31 30 29 28 27 27 26 25 24 23 22 21 21 21 21 22 23 24 25 26 27 28 29 30 31 31 32 32 32 31 31 31 30 30 29 29 29 30
22 24 26 27 26 25 25 24 24 24 23 22 22 21 20 20 19 19 20 21 22 24 25 26 27 28 28 29 29 29 29 28 28 28 28 27 28 28 29 30 30 31
21 22 22 21 21 20 21 21 20 20 20 20 19 18 18 17 18 18 19 21 22 24 25 26 26 26 26 26 26 25 25 25 25 25 26 27 28 29 30 31 32 33
20 19 18 17 16 17 17 17 18 17 17 17 16 16 15 16 17 18 19 21 22 23 23 24 23 23 23 22 22 22 22 23 24 25 26 28 29 30 31 32 32 33
18 17 15 14 14 14 14 15 15 15 14 14 14 14 14 15 17 18 19 20 21 21 21 20 20 19 19 20 20 21 22 24 25 26 27 29 30 31 31 32 32 33
17 15 14 13 12 13 13 13 13 12 12 12 12 13 14 16 17 17 18 18 18 18 18 17 17 17 18 19 20 22 23 25 26 27 28 29 30 31 31 32 33 33
15 13 12 12 12 12 11 11 11 11 11 12 12 14 14 15 16 16 16 16 15 15 15 16 16 17 19 20 22 23 24 26 27 27 28 29 29 30 31 31 32 33
14 12 11 11 11 10 10 10 10 10 11 12 12 13 13 14 14 14 13 13 13 13 14 15 17 18 20 21 23 24 25 26 27 28 28 28 29 29 30 31 32 33
13 12 11 10 10 9 9 10 10 10 11 11 11 11 11 11 11 11 10 11 11 13 14 16 17 19 20 22 23 24 25 26 26 27 27 28 28 29 30 31 32 33
12 11 10 10 9 9 10 10 10 10 10 10 9 9 8 8 8 8 9 10 11 13 15 16 18 20 21 22 23 24 25 25 25 26 26 27 28 29 30 31 32 33
11 11 10 10 10 10 9 9 9 8 8 8 7 6 6 6 6 7 9 10 12 14 15 17 18 20 21 22 23 23 23 24 24 25 26 27 28 29 30 32 33 34
11 10 10 10 10 9 9 8 7 7 6 5 5 4 4 5 6 8 10 11 13 15 16 17 18 19 20 21 22 22 23 23 24 25 26 27 28 30 31 32 33 34
11 10 10 10 9 8 8 7 6 5 4 3 3 4 5 6 7 9 11 13 14 16 17 18 19 19 20 20 21 22 23 24 25 26 27 28 29 30 31 32 33 34
11 10 10 9 8 7 7 6 5 4 3 3 4 4 6 7 9 11 13 14 15 16 17 18 19 19 20 20 21 22 23 24 25 26 27 28 29 30 31 32 33 34
11 10 9 8 7 7 6 5 4 3 3 4 4 5 7 9 11 12 13 15 16 17 17 18 19 19 20 21 22 23 24 25 26 27 28 29 30 31 32 33 34 34
11 9 8 8 7 6 5 4 4 4 4 4 5 6 8 10 11 13 14 15 16 17 18 18 19 20 20 22 23 23 24 25 26 27 28 29 31 32 33 34 35 35
10 9 8 8 7 6 5 5 4 4 3 4 6 7 9 11 12 13 14 15 16 17 18 18 19 20 21 22 23 23 24 25 26 27 29 30 32 33 34 35 35 35
10 9 9 8 7 6 6 5 4 3 3 5 7 8 10 11 12 13 14 15 16 17 18 18 19 20 21 22 23 24 24 25 26 27 29 30 32 33 35 35 35 36
11 10 9 8 8 7 6 5 4 3 4 6 7 9 10 11 12 13 14 15 16 16 17 17 18 19 20 21 22 23 24 25 26 27 29 30 31 33 34 34 34 35
12 11 10 9 8 7 5 4 3 4 5 6 8 9 10 11 12 13 14 14 15 16 16 17 18 19 20 21 22 23 24 25 26 28 29 30 31 32 33 33 33 32
12 11 10 10 8 6 5 4 4 4 5 6 8 9 9 10 11 12 13 14 14 15 16 17 18 19 20 21 22 23 24 25 26 27 28 30 31 32 33 34 33 32
12 12 11 9 7 5 4 4 4 4 5 6 7 8 9 10 11 11 12 13 14 15 16 17 18 19 20 21 22 23 24 25 26 28 28 29 31 32 33 33 34 33
13 13 11 8 6 5 4 3 3 4 5 6 6 7 8 9 10 11 12 13 14 15 16 17 18 19 20 22 23 23 24 25 26 28 29 30 31 32 33 32 32 32
14 12 10 8 6 5 4 3 3 3 4 5 6 7 8 9 10 11 12 13 14 15 16 17 18 19 20 22 23 24 25 26 27 28 29 30 31 32 33 33 32 32
Wind_Direction
267 267 267 267 267 267 268 268 270 271 272 274 277 279 279 279 279 281 285 289 292 295 297 299 301 301 302 302 303 304 304 304 304 305 306 308 309 310 310 310 309 310
269 269 269 269 269 269 269 269 270 271 273 275 277 278 279 279 280 282 286 290 293 297 299 301 302 302 303 303 304 305 305 305 305 306 308 309 310 311 311 312 312 314
271 271 270 269 268 269 269 269 270 272 273 275 276 278 278 279 281 284 288 293 297 299 301 302 303 304 305 306 307 307 307 307 308 309 311 313 313 314 315 315 316 317
281 278 274 272 270 269 270 270 271 272 273 275 275 276 278 280 284 288 293 297 300 302 303 304 305 306 307 308 309 309 310 311 313 314 316 316 317 317 317 317 317 318
287 284 280 276 273 271 272 271 271 271 271 273 274 276 279 283 289 294 298 301 303 304 305 306 308 309 310 312 312 313 314 316 318 318 319 319 318 318 319 319 319 318
288 285 281 277 273 271 271 270 270 270 271 273 275 279 284 289 295 299 301 304 305 306 308 309 311 313 314 315 316 317 319 320 321 321 320 320 320 320 320 319 319 318
289 285 280 276 272 271 270 269 270 271 272 276 281 286 292 296 301 303 305 307 308 309 311 313 315 316 317 318 319 320 322 322 322 322 322 321 321 320 320 319 319 318
285 281 277 274 272 271 271 270 272 274 279 284 290 295 299 302 305 307 309 310 311 313 314 316 318 319 320 321 322 323 323 323 322 322 322 321 321 321 320 320 319 318
277 273 271 271 270 270 271 273 277 281 287 292 296 301 304 307 309 311 312 313 314 317 318 319 321 322 323 325 325 325 324 323 322 322 322 322 321 321 321 321 320 319
270 268 268 269 270 272 274 277 282 286 291 297 301 305 308 309 311 312 314 317 319 321 322 323 324 325 326 326 325 324 324 323 323 323 323 323 323 322 322 321 320 320
266 266 267 267 269 272 275 279 285 290 295 300 304 307 309 311 313 315 317 321 322 323 324 325 326 326 326 325 324 324 324 324 324 324 324 324 324 324 323 323 322 321
263 262 262 264 266 271 276 282 287 292 297 300 304 308 309 311 313 316 319 320 321 323 324 325 325 325 325 324 324 324 324 324 324 325 326 326 326 326 326 326 325 324
256 256 258 261 266 272 277 282 286 290 294 296 300 303 305 309 313 316 318 319 321 323 324 324 324 324 324 324 324 324 324 325 326 326 327 328 329 329 329 329 328 327
249 252 256 261 267 272 275 279 280 282 287 288 292 295 300 308 312 316 319 320 322 323 323 323 323 323 323 323 323 325 326 327 329 329 330 331 332 332 332 331 331 329
247 252 257 261 266 269 270 271 271 272 274 274 281 291 300 309 315 318 321 322 322 323 322 322 322 322 322 323 325 328 329 331 332 332 333 334 334 334 334 334 333 332
246 251 256 260 262 262 260 260 260 256 255 264 280 297 308 316 320 321 322 322 322 322 322 322 323 324 325 327 330 332 333 334 334 335 336 336 336 336 336 336 335 333
245 248 251 252 249 247 245 241 237 236 249 270 292 310 318 321 322 321 321 321 321 322 323 324 325 328 331 333 335 335 337 337 337 338 338 338 338 338 339 338 337 336
241 241 239 235 231 230 227 218 220 236 259 286 307 318 320 320 320 320 320 321 322 324 325 327 329 333 335 336 338 338 339 340 340 340 340 340 340 341 341 340 339 338
234 229 222 221 218 214 208 208 224 245 272 302 314 317 317 318 319 320 321 323 325 326 327 331 334 337 338 339 340 341 341 341 342 342 342 344 344 343 343 342 341 340
222 215 212 211 206 201 202 213 233 258 291 307 312 314 316 318 320 321 323 324 326 327 330 334 337 338 340 341 341 341 342 343 343 344 345 346 346 345 344 343 343 342
210 206 205 201 197 198 205 220 244 274 297 306 311 315 318 320 321 323 325 326 327 329 333 336 339 341 342 342 343 343 344 344 345 347 348 348 347 346 345 345 346 345
202 200 197 194 193 200 211 230 258 284 299 308 314 317 319 321 323 324 325 326 329 332 336 339 341 343 344 344 344 345 345 347 348 349 350 349 348 348 346 346 348 348
197 194 192 191 195 205 219 241 268 289 303 312 317 319 322 323 324 326 327 329 333 336 339 342 343 344 345 346 346 347 348 349 350 351 351 350 349 350 348 348 350 351
192 190 189 191 199 211 226 248 273 293 307 315 318 320 323 324 326 329 331 334 337 339 341 343 345 346 347 347 348 350 351 352 352 352 352 352 351 351 352 352 351 352
188 188 188 192 202 215 227 249 278 298 310 316 319 321 324 326 330 334 337 338 340 341 343 345 347 349 349 350 351 352 352 354 354 354 353 353 354 354 355 354 353 353
186 187 189 194 203 213 222 247 284 303 312 316 321 326 330 335 338 340 341 343 344 345 346 348 350 352 352 352 353 354 355 355 355 355 355 355 357 357 356 355 355 354
Height
3155 3155 3154 3155 3155 3155 3155 3155 3155 3155 3155 3155 3155 3154 3154 3153 3153 3152 3152 3151 3151 3150 3149 3148 3146 3145 3144 3143 3141 3140 3139 3137 3136 3134 3133 3131 3129 3127 3125 3123 3121 3119
3152 3152 3152 3152 3152 3152 3152 3152 3153 3153 3153 3153 3152 3152 3152 3152 3151 3150 3150 3149 3148 3147 3146 3145 3144 3143 3141 3140 3139 3137 3136 3135 3133 3131 3129 3128 3126 3124 3122 3120 3118 3116
3149 3149 3149 3149 3149 3149 3149 3149 3150 3150 3150 3150 3150 3150 3150 3150 3149 3148 3147 3146 3145 3144 3143 3142 3141 3140 3139 3137 3136 3135 3133 3132 3130 3128 3126 3124 3123 3121 3119 3117 3115 3113
3147 3146 3146 3146 3146 3146 3147 3147 3147 3148 3148 3148 3148 3148 3148 3147 3147 3146 3145 3144 3143 3142 3141 3140 3139 3138 3136 3135 3134 3132 3131 3129 3127 3125 3123 3122 3120 3118 3116 3114 3112 3110
3145 3144 3144 3144 3144 3144 3145 3145 3145 3146 3146 3146 3146 3146 3146 3145 3144 3144 3143 3142 3141 3140 3139 3138 3137 3135 3134 3133 3131 3130 3128 3127 3125 3123 3121 3120 3118 3116 3114 3112 3109 3107
3143 3143 3143 3143 3143 3143 3143 3144 3144 3144 3145 3145 3144 3144 3144 3143 3142 3141 3141 3140 3139 3138 3137 3136 3134 3133 3132 3131 3130 3128 3126 3125 3123 3121 3119 3117 3115 3113 3111 3109 3106 3104
3142 3141 3141 3142 3142 3142 3142 3143 3143 3143 3143 3143 3143 3142 3142 3141 3140 3139 3138 3138 3137 3136 3135 3134 3133 3132 3131 3129 3128 3126 3125 3123 3121 3119 3117 3115 3113 3111 3108 3106 3104 3101
3140 3140 3141 3141 3141 3141 3142 3142 3142 3142 3142 3141 3141 3140 3140 3139 3138 3137 3136 3136 3135 3134 3133 3132 3131 3130 3129 3128 3126 3124 3123 3121 3119 3117 3115 3113 3111 3108 3105 3103 3100 3098
3140 3140 3140 3140 3140 3140 3140 3140 3140 3140 3140 3139 3139 3138 3137 3137 3136 3135 3135 3134 3133 3132 3132 3131 3130 3128 3127 3126 3124 3122 3121 3119 3117 3115 3113 3111 3108 3106 3103 3100 3098 3095
3139 3139 3139 3139 3139 3139 3139 3139 3139 3139 3138 3138 3137 3136 3136 3135 3134 3134 3133 3133 3132 3131 3130 3129 3128 3127 3125 3124 3122 3120 3119 3117 3115 3112 3110 3108 3106 3103 3101 3098 3095 3093
3137 3137 3137 3137 3138 3138 3138 3138 3137 3137 3137 3136 3135 3135 3134 3134 3133 3133 3132 3132 3131 3130 3129 3128 3126 3125 3124 3122 3120 3119 3117 3115 3112 3110 3108 3106 3103 3101 3098 3096 3093 3090
3136 3136 3136 3136 3136 3137 3136 3136 3136 3136 3135 3135 3134 3134 3133 3133 3133 3132 3132 3131 3130 3129 3128 3127 3125 3124 3122 3121 3119 3117 3115 3113 3111 3109 3106 3104 3101 3099 3096 3093 3090 3087
3135 3135 3135 3136 3136 3135 3135 3135 3135 3134 3134 3134 3133 3133 3133 3133 3132 3132 3131 3130 3129 3128 3127 3126 3124 3123 3121 3119 3117 3116 3114 3112 3109 3107 3104 3102 3099 3096 3094 3090 3087 3084
3134 3134 3134 3134 3134 3134 3134 3134 3134 3133 3133 3133 3133 3133 3132 3132 3131 3131 3130 3129 3128 3127 3126 3124 3123 3122 3120 3118 3116 3114 3112 3110 3107 3105 3102 3100 3097 3094 3091 3088 3085 3082
3133 3133 3133 3133 3133 3133 3133 3133 3132 3132 3132 3132 3132 3132 3132 3131 3130 3129 3128 3128 3126 3125 3124 3123 3122 3120 3118 3117 3114 3112 3110 3107 3105 3102 3100 3097 3095 3092 3089 3086 3082 3079
3131 3131 3132 3132 3132 3132 3131 3131 3131 3131 3131 3131 3131 3131 3130 3130 3129 3128 3127 3126 3125 3124 3123 3121 3120 3118 3116 3114 3112 3110 3108 3105 3103 3100 3098 3095 3092 3090 3086 3084 3080 3076
3130 3130 3130 3130 3130 3130 3130 3130 3130 3131 3131 3131 3130 3130 3129 3128 3127 3127 3126 3125 3124 3122 3121 3119 3118 3116 3114 3112 3110 3107 3105 3103 3100 3098 3095 3093 3090 3087 3084 3080 3077 3073
3128 3128 3128 3129 3129 3129 3129 3129 3130 3130 3130 3129 3129 3128 3128 3127 3126 3126 3125 3123 3122 3121 3119 3117 3115 3114 3112 3110 3108 3105 3103 3101 3099 3096 3093 3091 3087 3084 3081 3077 3074 3071
3126 3127 3127 3127 3128 3128 3128 3128 3129 3129 3128 3128 3128 3127 3127 3126 3125 3124 3123 3122 3121 3119 3117 3116 3114 3112 3110 3108 3106 3104 3102 3099 3097 3094 3091 3088 3085 3081 3078 3075 3071 3068
3125 3125 3126 3126 3127 3127 3127 3128 3128 3128 3128 3127 3127 3126 3126 3125 3124 3123 3122 3120 3119 3118 3116 3114 3113 3111 3109 3107 3105 3102 3100 3098 3095 3093 3089 3086 3083 3079 3076 3073 3069 3065
3124 3124 3125 3125 3126 3126 3127 3127 3127 3127 3127 3126 3126 3125 3124 3124 3123 3122 3121 3119 3118 3116 3115 3113 3112 3110 3108 3106 3104 3101 3099 3096 3094 3091 3088 3085 3082 3078 3075 3071 3068 3063
3122 3123 3124 3124 3125 3126 3126 3126 3126 3126 3126 3125 3125 3124 3123 3122 3122 3121 3119 3118 3117 3115 3114 3112 3110 3109 3107 3105 3103 3100 3098 3095 3092 3089 3087 3084 3080 3077 3073 3070 3066 3062
3121 3122 3123 3124 3124 3125 3125 3125 3125 3125 3125 3124 3124 3123 3122 3122 3121 3120 3118 3117 3116 3114 3113 3111 3110 3108 3106 3104 3102 3099 3096 3094 3091 3088 3085 3082 3079 3076 3072 3068 3064 3061
3120 3121 3122 3123 3123 3124 3124 3124 3124 3124 3123 3123 3123 3122 3122 3121 3120 3119 3117 3116 3115 3113 3112 3110 3109 3107 3105 3103 3100 3098 3095 3093 3090 3087 3084 3081 3078 3074 3070 3066 3062 3059
3119 3120 3121 3122 3122 3123 3123 3123 3123 3123 3122 3122 3122 3121 3121 3120 3119 3118 3116 3115 3114 3112 3111 3109 3107 3106 3103 3101 3099 3096 3094 3091 3089 3086 3083 3080 3076 3072 3068 3065 3061 3057
3118 3119 3120 3121 3121 3122 3122 3122 3122 3122 3122 3121 3121 3120 3120 3119 3118 3117 3116 3114 3113 3111 3110 3108 3106 3104 3102 3100 3097 3095 3093 3090 3087 3085 3081 3078 3074 3071 3067 3063 3060 3056